Flag for Bolivia Weather past 2 weeks in Trinidad, Bolivia

Now
59 °F

Low clouds.


Feels Like: 59 °F
Forecast: 56 / 69 °F
Wind: No wind

Location: Trinidad Airport

Current Time: Jul 5, 2015 at 5:51:19 AM

Latest Report: Jul 5, 2015 at 5:00 AM


Visibility: N/A

Pressure: 30.04 "Hg

Humidity: 94%

Dew point: 57 °F

Location of TrinidadLocation

Historic Weather in Trinidad — Graph

°F

Trinidad temperature yesterday

Maximum temperature yesterday: 64 °F (at 5:00 AM)
Minimum temperature yesterday: 57 °F (at 7:00 PM)
Average temperature yesterday: 60 °F

Past Weeks' High & Low Weather Summary

 TemperatureHumidityPressure
High90 °F (Jun 23, 2:00 PM)100% (Jun 22, 6:00 AM)30.15 "Hg (Jun 22, 6:00 AM)
Low55 °F (Jun 20, 5:00 AM)41% (Jun 27, 3:00 PM)29.80 "Hg (Jun 29, 4:00 PM)
Average76 °F77%30.00 "Hg
* Reported Jun 20 5:00 AM — Jul 4 8:00 PM, Trinidad, Weather by CustomWeather, © 2015

Note: Actual official high and low records may vary slightly from our data, if they occured in-between our weather recording intervals... More about our weather records

Advertising

Trinidad weather history for previous 24 hours

 ConditionsComfort  
Time TempWeatherWind HumidityBarometerVisibility
8:00 PM
Sat, Jul 4
59 °FLight rain. Mostly cloudy.7 mph88%30.07 "HgN/A
7:00 PM57 °FLight rain. Low clouds.9 mph94%30.09 "Hg4 mi
6:00 PM59 °FLow clouds.9 mph94%30.12 "HgN/A
5:00 PM59 °FLight rain. Mostly cloudy.8 mph94%30.09 "Hg2 mi
4:00 PM59 °FMostly cloudy.15 mph94%30.07 "HgN/A
3:00 PM61 °FMostly cloudy.15 mph88%30.07 "HgN/A
2:00 PM61 °FMostly cloudy.16 mph88%30.12 "HgN/A
1:00 PM61 °FMore clouds than sun.20 mph83%30.12 "HgN/A
12:00 PM61 °FMore clouds than sun.18 mph88%30.12 "HgN/A
11:00 AM61 °FMostly cloudy.16 mph94%30.15 "HgN/A
10:00 AM59 °FMore clouds than sun.15 mph100%30.15 "HgN/A
9:00 AM61 °FLight rain. Mostly cloudy.12 mph94%30.15 "Hg4 mi
8:00 AM61 °FLight rain. Mostly cloudy.12 mph94%30.09 "Hg4 mi
7:00 AM63 °FLight rain. Mostly cloudy.17 mph88%30.01 "Hg4 mi
6:00 AM63 °FLight rain. Mostly cloudy.13 mph88%30.01 "Hg5 mi
5:00 AM64 °FLight rain. Mostly cloudy.5 mph88%30.01 "Hg5 mi
Weather by CustomWeather, © 2015

See weather overviewHow to use our weather pages